User: anonymous   Login
Location: B�di�
(14.6834°N, 3.1047°W)
Time: 12:30:52
(UTC+00:00)
Language:

YAOGAN 1 - Orbit

View from above orbital plane
View from above orbital plane
View from above satellite
View from above satellite

Ground track
Ground track

The orbit data is extracted from the following two-line orbital elements,

1 29092U 06015A   20094.83082314 +.00000070 +00000-0 +15179-4 0  9992
2 29092 097.9480 119.6061 0001462 090.9165 269.2216 14.83052741753679
Epoch (UTC): 03 April 2020 19:56:23
Eccentricity: 0.0001462
inclination: 97.9480°
perigee height: 618 km
apogee height: 621 km
right ascension of ascending node: 119.6061°
argument of perigee: 90.9165°
revolutions per day: 14.83052741
mean anomaly at epoch: 269.2216°
orbit number at epoch: 75367

The dashed part of the orbit path shows where the satellite is in the earth's shadow,  

DLR